Time,TemperatureF,DewpointF,PressureIn,WindDirection,WindDirectionDegrees,WindSpeedMPH,WindSpeedGustMPH,Humidity,HourlyPrecipIn,Conditions,Clouds,dailyrainin,SoftwareType,DateUTC
2013-10-04 00:02:00,67.5,65.7,29.75,SSE,152,0.0,1.0,94,0.00,,,0.08,Wunderground v.1.15,2013-10-04 05:02:00,
2013-10-04 00:08:00,67.4,65.9,29.75,SSE,163,0.0,1.0,95,0.00,,,0.08,Wunderground v.1.15,2013-10-04 05:08:00,
2013-10-04 00:13:00,67.4,65.9,29.75,SSE,163,0.0,1.0,95,0.00,,,0.08,Wunderground v.1.15,2013-10-04 05:13:00,
2013-10-04 00:19:00,67.3,65.8,29.75,SSE,163,0.0,1.0,95,0.00,,,0.08,Wunderground v.1.15,2013-10-04 05:19:00,
2013-10-04 00:25:00,67.2,65.7,29.75,SSE,163,0.0,1.0,95,0.00,,,0.08,Wunderground v.1.15,2013-10-04 05:25:00,
2013-10-04 00:26:00,67.2,65.7,29.75,SSE,163,0.0,1.0,95,0.00,,,0.08,Wunderground v.1.15,2013-10-04 05:26:00,
2013-10-04 00:31:00,67.2,65.7,29.75,SSE,164,0.0,1.0,95,0.00,,,0.08,Wunderground v.1.15,2013-10-04 05:31:00,
2013-10-04 00:32:00,67.2,65.7,29.75,SSE,164,0.0,1.0,95,0.00,,,0.08,Wunderground v.1.15,2013-10-04 05:32:00,
2013-10-04 00:38:00,67.2,65.7,29.75,SSE,163,0.0,1.0,95,0.00,,,0.08,Wunderground v.1.15,2013-10-04 05:38:00,
2013-10-04 00:43:00,67.3,65.8,29.75,SSE,164,0.0,1.0,95,0.00,,,0.08,Wunderground v.1.15,2013-10-04 05:43:00,
2013-10-04 00:48:00,67.3,65.8,29.75,SE,129,0.0,1.0,95,0.00,,,0.08,Wunderground v.1.15,2013-10-04 05:48:00,
2013-10-04 00:54:00,67.4,65.9,29.75,SE,129,0.0,1.0,95,0.00,,,0.08,Wunderground v.1.15,2013-10-04 05:54:00,
2013-10-04 00:59:00,67.5,66.0,29.76,NW,309,0.0,2.0,95,0.00,,,0.08,Wunderground v.1.15,2013-10-04 05:59:00,
2013-10-04 01:05:00,67.5,66.0,29.76,NW,308,0.0,1.0,95,0.00,,,0.08,Wunderground v.1.15,2013-10-04 06:05:00,
2013-10-04 01:11:00,67.6,66.1,29.76,NW,308,0.0,1.0,95,0.00,,,0.08,Wunderground v.1.15,2013-10-04 06:11:00,
2013-10-04 01:17:00,67.6,66.1,29.76,NW,308,0.0,1.0,95,0.00,,,0.08,Wunderground v.1.15,2013-10-04 06:17:00,
2013-10-04 01:22:00,67.6,66.1,29.75,NW,308,0.0,1.0,95,0.00,,,0.08,Wunderground v.1.15,2013-10-04 06:22:00,
2013-10-04 01:28:00,67.6,66.1,29.75,NW,308,0.0,1.0,95,0.00,,,0.00,Wunderground v.1.15,2013-10-04 06:28:00,
2013-10-04 01:34:00,67.6,66.1,29.76,NW,308,0.0,1.0,95,0.00,,,0.00,Wunderground v.1.15,2013-10-04 06:34:00,
2013-10-04 01:39:00,67.6,66.1,29.76,NW,308,0.0,1.0,95,0.00,,,0.00,Wunderground v.1.15,2013-10-04 06:39:00,
2013-10-04 01:44:00,67.6,66.1,29.75,NW,308,0.0,1.0,95,0.00,,,0.00,Wunderground v.1.15,2013-10-04 06:44:00,
2013-10-04 01:49:00,67.6,66.1,29.75,NW,308,0.0,1.0,95,0.00,,,0.00,Wunderground v.1.15,2013-10-04 06:49:00,
2013-10-04 01:54:00,67.6,66.1,29.75,NW,308,0.0,1.0,95,0.00,,,0.00,Wunderground v.1.15,2013-10-04 06:54:00,
2013-10-04 02:02:00,67.6,66.1,29.76,NW,308,0.0,1.0,95,0.00,,,0.00,Wunderground v.1.15,2013-10-04 07:02:00,
2013-10-04 02:08:00,67.6,66.1,29.76,NW,308,0.0,1.0,95,0.00,,,0.00,Wunderground v.1.15,2013-10-04 07:08:00,
2013-10-04 02:15:00,67.5,66.0,29.77,NW,308,0.0,1.0,95,0.00,,,0.00,Wunderground v.1.15,2013-10-04 07:15:00,
2013-10-04 02:20:00,67.6,66.1,29.76,NW,308,0.0,1.0,95,0.00,,,0.00,Wunderground v.1.15,2013-10-04 07:20:00,
2013-10-04 02:27:00,67.6,66.1,29.76,NW,308,0.0,1.0,95,0.00,,,0.00,Wunderground v.1.15,2013-10-04 07:27:00,
2013-10-04 02:33:00,67.8,66.6,29.75,WNW,298,0.0,1.0,96,0.00,,,0.00,Wunderground v.1.15,2013-10-04 07:33:00,
2013-10-04 02:38:00,68.0,66.8,29.75,North,351,1.0,1.0,96,0.00,,,0.00,Wunderground v.1.15,2013-10-04 07:38:00,
2013-10-04 02:44:00,68.1,66.6,29.75,SSE,161,1.0,1.0,95,0.00,,,0.00,Wunderground v.1.15,2013-10-04 07:44:00,
2013-10-04 02:50:00,68.3,66.8,29.74,South,184,1.0,1.0,95,0.00,,,0.00,Wunderground v.1.15,2013-10-04 07:50:00,
2013-10-04 02:55:00,68.4,66.9,29.76,ESE,109,1.0,1.0,95,0.00,,,0.00,Wunderground v.1.15,2013-10-04 07:55:00,
2013-10-04 03:01:00,67.9,65.5,29.81,ESE,105,4.0,12.0,92,0.35,,,0.02,Wunderground v.1.15,2013-10-04 08:01:00,
2013-10-04 03:07:00,65.7,63.6,29.80,NNE,33,7.0,12.0,93,1.23,,,0.17,Wunderground v.1.15,2013-10-04 08:07:00,
2013-10-04 03:13:00,64.9,63.1,29.81,ESE,103,5.0,6.0,94,0.12,,,0.17,Wunderground v.1.15,2013-10-04 08:13:00,
2013-10-04 03:18:00,64.5,63.0,29.81,ESE,113,3.0,6.0,95,0.08,,,0.18,Wunderground v.1.15,2013-10-04 08:18:00,
2013-10-04 03:24:00,64.1,62.6,29.80,ESE,103,3.0,6.0,95,0.06,,,0.18,Wunderground v.1.15,2013-10-04 08:24:00,
2013-10-04 03:31:00,63.6,62.1,29.81,ESE,110,3.0,3.0,95,0.04,,,0.18,Wunderground v.1.15,2013-10-04 08:31:00,
2013-10-04 03:37:00,63.3,61.8,29.79,SSE,148,4.0,6.0,95,0.00,,,0.18,Wunderground v.1.15,2013-10-04 08:37:00,
2013-10-04 03:42:00,63.2,61.7,29.81,SSE,152,4.0,6.0,95,0.00,,,0.19,Wunderground v.1.15,2013-10-04 08:42:00,
2013-10-04 03:48:00,63.0,61.5,29.80,SSE,167,2.0,6.0,95,0.47,,,0.22,Wunderground v.1.15,2013-10-04 08:48:00,
2013-10-04 03:54:00,62.9,61.4,29.80,SE,134,1.0,3.0,95,0.16,,,0.23,Wunderground v.1.15,2013-10-04 08:54:00,
2013-10-04 04:00:00,62.9,61.7,29.80,SE,144,1.0,1.0,96,0.07,,,0.23,Wunderground v.1.15,2013-10-04 09:00:00,
2013-10-04 04:05:00,63.0,61.8,29.81,SSE,149,1.0,2.0,96,0.40,,,0.25,Wunderground v.1.15,2013-10-04 09:05:00,
2013-10-04 04:13:00,63.0,61.8,29.81,ESE,108,2.0,3.0,96,0.08,,,0.25,Wunderground v.1.15,2013-10-04 09:13:00,
2013-10-04 04:18:00,62.9,61.7,29.80,SSE,158,1.0,3.0,96,0.05,,,0.25,Wunderground v.1.15,2013-10-04 09:18:00,
2013-10-04 04:23:00,62.9,61.7,29.81,SSE,157,0.0,1.0,96,0.00,,,0.25,Wunderground v.1.15,2013-10-04 09:23:00,
2013-10-04 04:29:00,62.8,61.6,29.81,SSE,157,0.0,1.0,96,0.00,,,0.25,Wunderground v.1.15,2013-10-04 09:29:00,
2013-10-04 04:34:00,62.6,61.4,29.81,SSE,157,0.0,1.0,96,0.00,,,0.25,Wunderground v.1.15,2013-10-04 09:34:00,
2013-10-04 04:39:00,62.5,61.3,29.81,SSE,157,0.0,1.0,96,0.00,,,0.25,Wunderground v.1.15,2013-10-04 09:39:00,
2013-10-04 04:45:00,62.4,61.2,29.81,SSE,157,0.0,1.0,96,0.00,,,0.25,Wunderground v.1.15,2013-10-04 09:45:00,
2013-10-04 04:52:00,62.3,61.1,29.81,SSE,156,0.0,1.0,96,0.00,,,0.25,Wunderground v.1.15,2013-10-04 09:52:00,
2013-10-04 04:58:00,62.2,61.0,29.81,SSE,156,0.0,1.0,96,0.00,,,0.25,Wunderground v.1.15,2013-10-04 09:58:00,
2013-10-04 05:03:00,62.2,61.0,29.80,SSE,156,0.0,1.0,96,0.00,,,0.25,Wunderground v.1.15,2013-10-04 10:03:00,
2013-10-04 05:08:00,62.2,61.3,29.81,SSE,156,0.0,1.0,97,0.00,,,0.25,Wunderground v.1.15,2013-10-04 10:08:00,
2013-10-04 05:14:00,62.2,61.3,29.80,SSE,162,0.0,1.0,97,0.00,,,0.25,Wunderground v.1.15,2013-10-04 10:14:00,
2013-10-04 05:20:00,62.2,61.3,29.79,SSW,195,0.0,1.0,97,0.00,,,0.25,Wunderground v.1.15,2013-10-04 10:20:00,
2013-10-04 05:25:00,62.2,61.3,29.79,SSW,208,1.0,2.0,97,0.00,,,0.25,Wunderground v.1.15,2013-10-04 10:25:00,
2013-10-04 05:31:00,62.1,60.9,29.78,SSW,208,1.0,3.0,96,0.00,,,0.25,Wunderground v.1.15,2013-10-04 10:31:00,
2013-10-04 05:37:00,62.1,60.9,29.77,South,186,2.0,4.0,96,0.00,,,0.25,Wunderground v.1.15,2013-10-04 10:37:00,
2013-10-04 05:42:00,62.1,60.9,29.78,South,169,1.0,2.0,96,0.00,,,0.25,Wunderground v.1.15,2013-10-04 10:42:00,
2013-10-04 05:49:00,62.1,60.9,29.78,SSE,167,0.0,2.0,96,0.00,,,0.25,Wunderground v.1.15,2013-10-04 10:49:00,
2013-10-04 05:54:00,61.9,60.7,29.79,SSE,152,0.0,2.0,96,0.00,,,0.25,Wunderground v.1.15,2013-10-04 10:54:00,
2013-10-04 06:00:00,61.9,60.7,29.80,SE,139,0.0,1.0,96,0.00,,,0.25,Wunderground v.1.15,2013-10-04 11:00:00,
2013-10-04 06:06:00,61.8,60.6,29.79,SSE,148,0.0,1.0,96,0.00,,,0.25,Wunderground v.1.15,2013-10-04 11:06:00,
2013-10-04 06:12:00,61.9,60.7,29.78,South,179,0.0,2.0,96,0.00,,,0.25,Wunderground v.1.15,2013-10-04 11:12:00,
2013-10-04 06:17:00,61.9,60.7,29.78,South,181,1.0,2.0,96,0.00,,,0.25,Wunderground v.1.15,2013-10-04 11:17:00,
2013-10-04 06:23:00,62.0,61.1,29.76,South,183,1.0,3.0,97,0.00,,,0.25,Wunderground v.1.15,2013-10-04 11:23:00,
2013-10-04 06:29:00,62.2,61.3,29.77,South,179,1.0,1.0,97,0.00,,,0.25,Wunderground v.1.15,2013-10-04 11:29:00,
2013-10-04 06:35:00,62.5,61.6,29.76,South,183,1.0,2.0,97,0.00,,,0.25,Wunderground v.1.15,2013-10-04 11:35:00,
2013-10-04 06:40:00,62.6,61.4,29.76,SE,143,1.0,2.0,96,0.00,,,0.25,Wunderground v.1.15,2013-10-04 11:40:00,
2013-10-04 06:46:00,62.6,61.4,29.76,SE,146,1.0,2.0,96,0.00,,,0.25,Wunderground v.1.15,2013-10-04 11:46:00,
2013-10-04 06:52:00,62.6,61.4,29.84,ENE,75,4.0,12.0,96,0.00,,,0.25,Wunderground v.1.15,2013-10-04 11:52:00,
2013-10-04 06:57:00,63.0,61.8,29.87,NNE,32,10.0,17.0,96,8.47,,,0.33,Wunderground v.1.15,2013-10-04 11:57:00,
2013-10-04 07:03:00,62.9,61.1,29.88,South,176,10.0,11.0,94,3.10,,,0.79,Wunderground v.1.15,2013-10-04 12:03:00,
2013-10-04 07:08:00,62.4,60.9,29.77,South,181,5.0,11.0,95,0.39,,,1.01,Wunderground v.1.15,2013-10-04 12:08:00,
2013-10-04 07:14:00,62.5,61.3,29.79,SSE,149,3.0,4.0,96,0.13,,,1.02,Wunderground v.1.15,2013-10-04 12:14:00,
2013-10-04 07:21:00,62.9,62.0,29.79,South,187,1.0,2.0,97,0.06,,,1.02,Wunderground v.1.15,2013-10-04 12:21:00,
2013-10-04 07:26:00,63.0,62.1,29.80,South,191,1.0,2.0,97,0.04,,,1.02,Wunderground v.1.15,2013-10-04 12:26:00,
2013-10-04 07:31:00,63.2,62.3,29.80,South,183,2.0,2.0,97,0.00,,,1.03,Wunderground v.1.15,2013-10-04 12:31:00,
2013-10-04 07:37:00,63.2,62.3,29.79,South,169,1.0,2.0,97,0.13,,,1.05,Wunderground v.1.15,2013-10-04 12:37:00,
2013-10-04 07:42:00,63.2,62.3,29.79,South,172,1.0,3.0,97,0.12,,,1.05,Wunderground v.1.15,2013-10-04 12:42:00,
2013-10-04 07:47:00,63.0,62.1,29.79,ESE,121,1.0,3.0,97,0.06,,,1.05,Wunderground v.1.15,2013-10-04 12:47:00,
2013-10-04 07:53:00,62.8,61.9,29.81,SE,131,1.0,4.0,97,0.04,,,1.05,Wunderground v.1.15,2013-10-04 12:53:00,
2013-10-04 07:58:00,62.7,61.8,29.84,East,85,2.0,5.0,97,0.00,,,1.06,Wunderground v.1.15,2013-10-04 12:58:00,
2013-10-04 08:03:00,62.8,61.9,29.88,ENE,65,5.0,8.0,97,1.60,,,1.14,Wunderground v.1.15,2013-10-04 13:03:00,
2013-10-04 08:09:00,62.8,61.9,29.83,SE,146,4.0,6.0,97,3.89,,,1.46,Wunderground v.1.15,2013-10-04 13:09:00,
2013-10-04 08:14:00,62.8,61.9,29.82,SSE,158,2.0,6.0,97,0.64,,,1.57,Wunderground v.1.15,2013-10-04 13:14:00,
2013-10-04 08:19:00,62.7,61.8,29.80,SSE,150,2.0,2.0,97,0.15,,,1.58,Wunderground v.1.15,2013-10-04 13:19:00,
2013-10-04 08:24:00,62.5,61.6,29.81,South,181,2.0,2.0,97,0.12,,,1.59,Wunderground v.1.15,2013-10-04 13:24:00,
2013-10-04 08:30:00,62.3,61.4,29.81,SSW,205,2.0,3.0,97,0.06,,,1.59,Wunderground v.1.15,2013-10-04 13:30:00,
2013-10-04 08:35:00,62.2,61.3,29.81,SE,135,2.0,3.0,97,0.04,,,1.59,Wunderground v.1.15,2013-10-04 13:35:00,
2013-10-04 08:40:00,62.1,61.2,29.81,South,177,1.0,1.0,97,0.19,,,1.61,Wunderground v.1.15,2013-10-04 13:40:00,
2013-10-04 08:46:00,62.1,61.2,29.83,South,170,1.0,2.0,97,0.17,,,1.63,Wunderground v.1.15,2013-10-04 13:46:00,
2013-10-04 08:52:00,62.1,61.2,29.83,South,172,1.0,2.0,97,0.16,,,1.64,Wunderground v.1.15,2013-10-04 13:52:00,
2013-10-04 08:57:00,62.2,61.3,29.83,South,172,1.0,2.0,97,0.15,,,1.65,Wunderground v.1.15,2013-10-04 13:57:00,
2013-10-04 09:02:00,62.3,61.7,29.85,South,183,1.0,1.0,98,0.09,,,1.66,Wunderground v.1.15,2013-10-04 14:02:00,
2013-10-04 09:07:00,62.3,61.7,29.86,South,174,1.0,1.0,98,0.49,,,1.69,Wunderground v.1.15,2013-10-04 14:07:00,
2013-10-04 09:13:00,62.3,61.4,29.84,South,175,0.0,1.0,97,0.19,,,1.70,Wunderground v.1.15,2013-10-04 14:13:00,
2013-10-04 09:19:00,62.3,61.7,29.85,SSE,164,0.0,1.0,98,0.07,,,1.70,Wunderground v.1.15,2013-10-04 14:19:00,
2013-10-04 09:25:00,62.4,61.8,29.85,South,175,0.0,1.0,98,0.04,,,1.70,Wunderground v.1.15,2013-10-04 14:25:00,
2013-10-04 09:30:00,62.4,61.8,29.85,SE,146,0.0,1.0,98,0.00,,,1.70,Wunderground v.1.15,2013-10-04 14:30:00,
2013-10-04 09:36:00,62.5,61.9,29.85,WNW,290,0.0,2.0,98,0.00,,,1.70,Wunderground v.1.15,2013-10-04 14:36:00,
2013-10-04 09:42:00,62.6,62.0,29.84,South,178,0.0,1.0,98,0.00,,,1.70,Wunderground v.1.15,2013-10-04 14:42:00,
2013-10-04 09:48:00,62.8,62.2,29.84,South,172,0.0,1.0,98,0.00,,,1.70,Wunderground v.1.15,2013-10-04 14:48:00,
2013-10-04 09:53:00,63.2,62.6,29.84,South,173,0.0,1.0,98,0.00,,,1.70,Wunderground v.1.15,2013-10-04 14:53:00,
2013-10-04 09:58:00,63.6,63.0,29.83,South,173,0.0,1.0,98,0.00,,,1.70,Wunderground v.1.15,2013-10-04 14:58:00,
2013-10-04 10:03:00,63.5,62.6,29.83,SSE,155,0.0,1.0,97,0.00,,,1.70,Wunderground v.1.15,2013-10-04 15:03:00,
2013-10-04 10:08:00,63.3,62.4,29.82,SSE,160,0.0,1.0,97,0.00,,,1.70,Wunderground v.1.15,2013-10-04 15:08:00,
2013-10-04 10:14:00,63.2,62.3,29.82,South,179,0.0,1.0,97,0.00,,,1.70,Wunderground v.1.15,2013-10-04 15:14:00,
2013-10-04 10:19:00,63.2,62.3,29.82,South,184,0.0,1.0,97,0.00,,,1.70,Wunderground v.1.15,2013-10-04 15:19:00,
2013-10-04 10:25:00,63.3,62.7,29.81,SSE,164,0.0,1.0,98,0.00,,,1.70,Wunderground v.1.15,2013-10-04 15:25:00,
2013-10-04 10:30:00,63.3,62.4,29.81,SE,146,0.0,1.0,97,0.00,,,1.70,Wunderground v.1.15,2013-10-04 15:30:00,
2013-10-04 10:36:00,63.4,62.8,29.81,SSE,166,1.0,1.0,98,0.00,,,1.70,Wunderground v.1.15,2013-10-04 15:36:00,
2013-10-04 10:41:00,63.5,62.9,29.81,South,186,1.0,1.0,98,0.00,,,1.70,Wunderground v.1.15,2013-10-04 15:41:00,
2013-10-04 10:47:00,63.5,62.9,29.81,South,186,1.0,2.0,98,0.00,,,1.70,Wunderground v.1.15,2013-10-04 15:47:00,
2013-10-04 10:53:00,63.6,63.0,29.82,NW,318,1.0,3.0,98,0.00,,,1.70,Wunderground v.1.15,2013-10-04 15:53:00,
2013-10-04 10:59:00,63.6,63.0,29.82,SSW,199,1.0,2.0,98,0.00,,,1.70,Wunderground v.1.15,2013-10-04 15:59:00,
2013-10-04 11:04:00,63.6,63.0,29.82,SSW,192,1.0,2.0,98,0.00,,,1.70,Wunderground v.1.15,2013-10-04 16:04:00,
2013-10-04 11:09:00,63.6,63.0,29.82,SSE,163,1.0,1.0,98,0.00,,,1.70,Wunderground v.1.15,2013-10-04 16:09:00,
2013-10-04 11:15:00,63.6,63.0,29.82,South,172,0.0,1.0,98,0.00,,,1.70,Wunderground v.1.15,2013-10-04 16:15:00,
2013-10-04 11:21:00,63.7,63.1,29.82,SSE,166,0.0,2.0,98,0.00,,,1.70,Wunderground v.1.15,2013-10-04 16:21:00,
2013-10-04 11:27:00,63.7,63.1,29.81,South,175,1.0,2.0,98,0.00,,,1.70,Wunderground v.1.15,2013-10-04 16:27:00,
2013-10-04 11:32:00,63.7,63.1,29.82,WSW,257,1.0,3.0,98,0.00,,,1.70,Wunderground v.1.15,2013-10-04 16:32:00,
2013-10-04 11:38:00,63.7,63.1,29.84,SE,141,2.0,3.0,98,0.00,,,1.70,Wunderground v.1.15,2013-10-04 16:38:00,
2013-10-04 11:44:00,63.7,63.1,29.83,SE,131,1.0,2.0,98,0.00,,,1.70,Wunderground v.1.15,2013-10-04 16:44:00,
2013-10-04 11:50:00,63.7,63.1,29.83,South,188,1.0,1.0,98,0.00,,,1.71,Wunderground v.1.15,2013-10-04 16:50:00,
2013-10-04 11:55:00,63.6,63.0,29.82,South,169,1.0,2.0,98,0.00,,,1.71,Wunderground v.1.15,2013-10-04 16:55:00,
2013-10-04 12:01:00,63.6,63.0,29.80,SSE,167,1.0,2.0,98,0.00,,,1.71,Wunderground v.1.15,2013-10-04 17:01:00,
2013-10-04 12:07:00,63.5,62.9,29.82,SSE,165,1.0,2.0,98,0.00,,,1.71,Wunderground v.1.15,2013-10-04 17:07:00,
2013-10-04 12:12:00,63.6,63.0,29.83,WSW,240,1.0,1.0,98,0.00,,,1.71,Wunderground v.1.15,2013-10-04 17:12:00,
2013-10-04 12:18:00,63.7,63.1,29.80,WSW,239,1.0,2.0,98,0.00,,,1.72,Wunderground v.1.15,2013-10-04 17:18:00,
2013-10-04 12:24:00,63.7,63.1,29.80,West,281,2.0,2.0,98,0.00,,,1.72,Wunderground v.1.15,2013-10-04 17:24:00,
2013-10-04 12:29:00,63.7,63.1,29.81,SSW,204,2.0,2.0,98,0.00,,,1.72,Wunderground v.1.15,2013-10-04 17:29:00,
2013-10-04 12:35:00,63.9,63.3,29.79,SSW,197,2.0,3.0,98,0.00,,,1.72,Wunderground v.1.15,2013-10-04 17:35:00,
2013-10-04 13:03:00,64.8,64.2,29.81,West,273,1.0,6.0,98,0.00,,,1.73,Wunderground v.1.15,2013-10-04 18:03:00,
2013-10-04 13:08:00,64.9,64.3,29.79,South,186,2.0,6.0,98,0.00,,,1.73,Wunderground v.1.15,2013-10-04 18:08:00,
2013-10-04 13:14:00,65.1,64.5,29.77,SSE,165,2.0,3.0,98,0.00,,,1.73,Wunderground v.1.15,2013-10-04 18:14:00,
2013-10-04 13:20:00,65.3,64.7,29.77,SW,221,2.0,3.0,98,0.00,,,1.73,Wunderground v.1.15,2013-10-04 18:20:00,
2013-10-04 13:25:00,65.4,64.8,29.76,South,170,2.0,3.0,98,0.00,,,1.73,Wunderground v.1.15,2013-10-04 18:25:00,
2013-10-04 13:31:00,65.7,65.1,29.76,SSW,195,2.0,2.0,98,0.00,,,1.73,Wunderground v.1.15,2013-10-04 18:31:00,
2013-10-04 13:36:00,65.9,65.3,29.76,South,183,2.0,3.0,98,0.00,,,1.73,Wunderground v.1.15,2013-10-04 18:36:00,
2013-10-04 13:42:00,66.2,65.6,29.76,SW,218,1.0,1.0,98,0.00,,,1.73,Wunderground v.1.15,2013-10-04 18:42:00,
2013-10-04 13:48:00,66.8,66.2,29.77,SSE,167,1.0,4.0,98,0.00,,,1.73,Wunderground v.1.15,2013-10-04 18:48:00,
2013-10-04 13:53:00,67.2,66.6,29.77,SSE,155,2.0,3.0,98,0.00,,,1.73,Wunderground v.1.15,2013-10-04 18:53:00,
2013-10-04 13:59:00,67.7,67.1,29.76,SW,226,1.0,1.0,98,0.00,,,1.73,Wunderground v.1.15,2013-10-04 18:59:00,
2013-10-04 14:06:00,68.2,67.6,29.77,South,174,1.0,1.0,98,0.00,,,1.73,Wunderground v.1.15,2013-10-04 19:06:00,
2013-10-04 14:11:00,68.6,68.0,29.77,WNW,285,1.0,2.0,98,0.00,,,1.73,Wunderground v.1.15,2013-10-04 19:11:00,
2013-10-04 14:16:00,69.1,68.5,29.76,South,190,1.0,2.0,98,0.00,,,1.73,Wunderground v.1.15,2013-10-04 19:16:00,
2013-10-04 14:21:00,69.6,69.0,29.76,WNW,285,1.0,3.0,98,0.00,,,1.73,Wunderground v.1.15,2013-10-04 19:21:00,
2013-10-04 14:27:00,70.3,69.4,29.76,WNW,288,1.0,3.0,97,0.00,,,1.73,Wunderground v.1.15,2013-10-04 19:27:00,
2013-10-04 14:33:00,70.8,69.9,29.76,SSE,148,1.0,1.0,97,0.00,,,1.73,Wunderground v.1.15,2013-10-04 19:33:00,
2013-10-04 14:39:00,70.9,69.7,29.75,NNW,344,1.0,1.0,96,0.00,,,1.73,Wunderground v.1.15,2013-10-04 19:39:00,
2013-10-04 14:44:00,71.0,69.8,29.75,SE,126,0.0,1.0,96,0.00,,,1.73,Wunderground v.1.15,2013-10-04 19:44:00,
2013-10-04 14:51:00,71.1,69.6,29.75,SSE,167,1.0,1.0,95,0.00,,,1.73,Wunderground v.1.15,2013-10-04 19:51:00,
2013-10-04 14:57:00,71.2,69.7,29.75,West,281,1.0,3.0,95,0.00,,,1.73,Wunderground v.1.15,2013-10-04 19:57:00,
2013-10-04 15:03:00,71.3,69.8,29.75,South,183,1.0,2.0,95,0.00,,,1.73,Wunderground v.1.15,2013-10-04 20:03:00,
2013-10-04 15:10:00,71.6,69.8,29.75,NW,323,1.0,1.0,94,0.00,,,1.73,Wunderground v.1.15,2013-10-04 20:10:00,
2013-10-04 15:16:00,71.9,70.1,29.75,NW,323,0.0,1.0,94,0.00,,,1.73,Wunderground v.1.15,2013-10-04 20:16:00,
2013-10-04 15:22:00,72.2,70.4,29.75,NW,323,0.0,1.0,94,0.00,,,1.73,Wunderground v.1.15,2013-10-04 20:22:00,
2013-10-04 15:28:00,72.6,70.5,29.75,SE,143,0.0,1.0,93,0.00,,,1.73,Wunderground v.1.15,2013-10-04 20:28:00,
2013-10-04 15:33:00,72.8,70.7,29.75,SSE,157,0.0,1.0,93,0.00,,,1.73,Wunderground v.1.15,2013-10-04 20:33:00,
2013-10-04 15:39:00,73.0,70.5,29.74,South,183,0.0,1.0,92,0.00,,,1.73,Wunderground v.1.15,2013-10-04 20:39:00,
2013-10-04 15:45:00,73.1,70.6,29.74,South,175,1.0,2.0,92,0.00,,,1.73,Wunderground v.1.15,2013-10-04 20:45:00,
2013-10-04 15:50:00,73.2,70.7,29.74,SSE,162,1.0,1.0,92,0.00,,,1.73,Wunderground v.1.15,2013-10-04 20:50:00,
2013-10-04 15:56:00,73.4,70.6,29.74,SSE,166,1.0,2.0,91,0.00,,,1.73,Wunderground v.1.15,2013-10-04 20:56:00,
2013-10-04 16:01:00,73.5,70.7,29.75,South,188,1.0,1.0,91,0.00,,,1.73,Wunderground v.1.15,2013-10-04 21:01:00,
2013-10-04 16:07:00,73.6,70.8,29.74,NW,319,1.0,1.0,91,0.00,,,1.73,Wunderground v.1.15,2013-10-04 21:07:00,
2013-10-04 16:12:00,73.7,70.9,29.74,South,172,0.0,2.0,91,0.00,,,1.73,Wunderground v.1.15,2013-10-04 21:12:00,
2013-10-04 16:18:00,74.2,71.4,29.74,West,259,0.0,2.0,91,0.00,,,1.73,Wunderground v.1.15,2013-10-04 21:18:00,
2013-10-04 16:24:00,74.8,71.3,29.74,South,191,1.0,2.0,89,0.00,,,1.73,Wunderground v.1.15,2013-10-04 21:24:00,
2013-10-04 16:30:00,75.1,71.3,29.74,WNW,297,1.0,2.0,88,0.00,,,1.73,Wunderground v.1.15,2013-10-04 21:30:00,
2013-10-04 16:35:00,74.9,71.1,29.74,SSE,150,1.0,2.0,88,0.00,,,1.73,Wunderground v.1.15,2013-10-04 21:35:00,
2013-10-04 16:41:00,74.9,71.1,29.73,South,171,1.0,3.0,88,0.00,,,1.73,Wunderground v.1.15,2013-10-04 21:41:00,
2013-10-04 16:47:00,74.9,71.1,29.72,NW,316,1.0,3.0,88,0.00,,,1.73,Wunderground v.1.15,2013-10-04 21:47:00,
2013-10-04 16:53:00,74.9,71.1,29.72,SSE,166,1.0,2.0,88,0.00,,,1.73,Wunderground v.1.15,2013-10-04 21:53:00,
2013-10-04 16:58:00,75.0,70.9,29.72,SSW,193,1.0,3.0,87,0.00,,,1.73,Wunderground v.1.15,2013-10-04 21:58:00,
2013-10-04 17:03:00,75.3,71.2,29.72,WSW,239,1.0,2.0,87,0.00,,,1.73,Wunderground v.1.15,2013-10-04 22:03:00,
2013-10-04 17:08:00,75.8,71.7,29.71,South,180,1.0,4.0,87,0.00,,,1.73,Wunderground v.1.15,2013-10-04 22:08:00,
2013-10-04 17:14:00,76.3,71.8,29.71,North,354,1.0,2.0,86,0.00,,,1.73,Wunderground v.1.15,2013-10-04 22:14:00,
2013-10-04 17:20:00,76.4,71.9,29.71,SSE,157,1.0,1.0,86,0.00,,,1.73,Wunderground v.1.15,2013-10-04 22:20:00,
2013-10-04 17:25:00,76.5,72.0,29.72,SSE,157,1.0,1.0,86,0.00,,,1.73,Wunderground v.1.15,2013-10-04 22:25:00,
2013-10-04 17:31:00,76.3,71.5,29.71,SSE,155,1.0,1.0,85,0.00,,,1.73,Wunderground v.1.15,2013-10-04 22:31:00,
2013-10-04 17:37:00,76.2,71.7,29.71,South,186,1.0,2.0,86,0.00,,,1.73,Wunderground v.1.15,2013-10-04 22:37:00,
2013-10-04 17:42:00,76.0,71.5,29.71,South,169,1.0,1.0,86,0.00,,,1.73,Wunderground v.1.15,2013-10-04 22:42:00,
2013-10-04 17:48:00,75.9,71.4,29.71,South,184,0.0,1.0,86,0.00,,,1.73,Wunderground v.1.15,2013-10-04 22:48:00,
2013-10-04 17:53:00,75.8,71.3,29.71,SE,143,1.0,3.0,86,0.00,,,1.73,Wunderground v.1.15,2013-10-04 22:53:00,
2013-10-04 17:59:00,75.7,71.6,29.70,South,186,1.0,1.0,87,0.00,,,1.73,Wunderground v.1.15,2013-10-04 22:59:00,
2013-10-04 18:04:00,75.7,71.6,29.70,SSE,155,0.0,1.0,87,0.00,,,1.73,Wunderground v.1.15,2013-10-04 23:04:00,
2013-10-04 18:10:00,75.5,71.4,29.71,SSE,167,0.0,1.0,87,0.00,,,1.73,Wunderground v.1.15,2013-10-04 23:10:00,
2013-10-04 18:16:00,75.3,71.5,29.71,SSE,165,0.0,1.0,88,0.00,,,1.73,Wunderground v.1.15,2013-10-04 23:16:00,
2013-10-04 18:22:00,75.0,71.2,29.71,SSE,165,0.0,1.0,88,0.00,,,1.73,Wunderground v.1.15,2013-10-04 23:22:00,
2013-10-04 18:27:00,74.8,71.0,29.71,SSE,165,0.0,1.0,88,0.00,,,1.73,Wunderground v.1.15,2013-10-04 23:27:00,
2013-10-04 18:33:00,74.5,71.0,29.71,SSE,150,0.0,1.0,89,0.00,,,1.73,Wunderground v.1.15,2013-10-04 23:33:00,
2013-10-04 18:38:00,74.1,71.0,29.71,SSE,149,0.0,1.0,90,0.00,,,1.73,Wunderground v.1.15,2013-10-04 23:38:00,
2013-10-04 18:44:00,73.9,70.8,29.70,SSE,154,0.0,1.0,90,0.00,,,1.73,Wunderground v.1.15,2013-10-04 23:44:00,
2013-10-04 18:50:00,73.8,70.7,29.71,East,88,0.0,1.0,90,0.00,,,1.73,Wunderground v.1.15,2013-10-04 23:50:00,
2013-10-04 18:55:00,73.6,70.8,29.71,SE,136,0.0,1.0,91,0.00,,,1.73,Wunderground v.1.15,2013-10-04 23:55:00,
2013-10-04 19:01:00,73.5,70.7,29.71,WNW,297,0.0,1.0,91,0.00,,,1.73,Wunderground v.1.15,2013-10-05 00:01:00,
2013-10-04 19:06:00,73.3,70.5,29.71,WNW,297,0.0,1.0,91,0.00,,,1.73,Wunderground v.1.15,2013-10-05 00:06:00,
2013-10-04 19:12:00,73.2,70.7,29.71,WNW,297,0.0,1.0,92,0.00,,,1.73,Wunderground v.1.15,2013-10-05 00:12:00,
2013-10-04 19:17:00,73.2,70.7,29.71,WNW,295,0.0,1.0,92,0.00,,,1.73,Wunderground v.1.15,2013-10-05 00:17:00,
2013-10-04 19:23:00,73.2,70.7,29.71,WNW,297,0.0,1.0,92,0.00,,,1.73,Wunderground v.1.15,2013-10-05 00:23:00,
2013-10-04 19:28:00,73.2,70.7,29.71,SW,236,0.0,1.0,92,0.00,,,1.73,Wunderground v.1.15,2013-10-05 00:28:00,
2013-10-04 19:34:00,73.4,70.6,29.71,South,184,0.0,1.0,91,0.00,,,1.73,Wunderground v.1.15,2013-10-05 00:34:00,
2013-10-04 19:39:00,73.6,70.8,29.70,South,184,0.0,1.0,91,0.00,,,1.73,Wunderground v.1.15,2013-10-05 00:39:00,
2013-10-04 19:45:00,73.8,70.7,29.70,South,183,0.0,1.0,90,0.00,,,1.73,Wunderground v.1.15,2013-10-05 00:45:00,
2013-10-04 19:51:00,74.0,70.6,29.70,ESE,120,1.0,4.0,89,0.00,,,1.73,Wunderground v.1.15,2013-10-05 00:51:00,
2013-10-04 19:57:00,74.2,70.4,29.71,NW,311,1.0,4.0,88,0.00,,,1.73,Wunderground v.1.15,2013-10-05 00:57:00,
2013-10-04 20:02:00,74.7,70.6,29.71,NW,310,1.0,4.0,87,0.00,,,1.73,Wunderground v.1.15,2013-10-05 01:02:00,
2013-10-04 20:08:00,75.0,70.5,29.71,ESE,111,1.0,4.0,86,0.00,,,1.73,Wunderground v.1.15,2013-10-05 01:08:00,
2013-10-04 20:13:00,75.1,70.3,29.71,West,280,1.0,3.0,85,0.00,,,1.73,Wunderground v.1.15,2013-10-05 01:13:00,
2013-10-04 20:19:00,75.2,70.4,29.71,SSW,207,1.0,2.0,85,0.00,,,1.73,Wunderground v.1.15,2013-10-05 01:19:00,
2013-10-04 20:25:00,75.2,70.0,29.72,South,173,1.0,2.0,84,0.00,,,1.73,Wunderground v.1.15,2013-10-05 01:25:00,
2013-10-04 20:31:00,75.2,70.0,29.71,WNW,302,1.0,3.0,84,0.00,,,1.73,Wunderground v.1.15,2013-10-05 01:31:00,
2013-10-04 20:36:00,75.2,70.0,29.71,West,266,1.0,3.0,84,0.00,,,1.73,Wunderground v.1.15,2013-10-05 01:36:00,
2013-10-04 20:42:00,75.2,70.0,29.71,WSW,238,1.0,2.0,84,0.00,,,1.73,Wunderground v.1.15,2013-10-05 01:42:00,
2013-10-04 20:48:00,75.2,70.0,29.72,WNW,291,1.0,3.0,84,0.00,,,1.73,Wunderground v.1.15,2013-10-05 01:48:00,
2013-10-04 20:54:00,75.1,69.6,29.72,East,79,2.0,3.0,83,0.00,,,1.73,Wunderground v.1.15,2013-10-05 01:54:00,
2013-10-04 20:59:00,75.1,69.6,29.72,SSE,155,1.0,1.0,83,0.00,,,1.73,Wunderground v.1.15,2013-10-05 01:59:00,
2013-10-04 21:05:00,75.1,69.6,29.71,East,96,2.0,3.0,83,0.00,,,1.73,Wunderground v.1.15,2013-10-05 02:05:00,
2013-10-04 21:10:00,75.0,69.5,29.72,SW,222,2.0,2.0,83,0.00,,,1.73,Wunderground v.1.15,2013-10-05 02:10:00,
2013-10-04 21:16:00,75.1,69.6,29.72,West,266,1.0,3.0,83,0.00,,,1.73,Wunderground v.1.15,2013-10-05 02:16:00,
2013-10-04 21:21:00,75.1,69.6,29.72,West,269,2.0,3.0,83,0.00,,,1.73,Wunderground v.1.15,2013-10-05 02:21:00,
2013-10-04 21:26:00,75.2,69.3,29.72,WNW,299,2.0,3.0,82,0.00,,,1.73,Wunderground v.1.15,2013-10-05 02:26:00,
2013-10-04 21:32:00,75.4,69.5,29.72,WNW,300,3.0,3.0,82,0.00,,,1.73,Wunderground v.1.15,2013-10-05 02:32:00,
2013-10-04 21:38:00,75.5,69.3,29.72,WSW,252,3.0,4.0,81,0.00,,,1.73,Wunderground v.1.15,2013-10-05 02:38:00,
2013-10-04 21:43:00,75.5,69.3,29.72,NW,319,3.0,6.0,81,0.00,,,1.73,Wunderground v.1.15,2013-10-05 02:43:00,
2013-10-04 21:49:00,75.6,69.4,29.72,NW,311,3.0,3.0,81,0.00,,,1.73,Wunderground v.1.15,2013-10-05 02:49:00,
2013-10-04 21:54:00,75.7,69.1,29.72,East,81,3.0,4.0,80,0.00,,,1.73,Wunderground v.1.15,2013-10-05 02:54:00,
2013-10-04 22:00:00,75.9,69.3,29.72,WNW,298,4.0,6.0,80,0.00,,,1.73,Wunderground v.1.15,2013-10-05 03:00:00,
2013-10-04 22:06:00,76.1,69.1,29.72,East,94,4.0,6.0,79,0.00,,,1.73,Wunderground v.1.15,2013-10-05 03:06:00,
2013-10-04 22:12:00,76.3,69.3,29.72,NW,311,4.0,6.0,79,0.00,,,1.73,Wunderground v.1.15,2013-10-05 03:12:00,
2013-10-04 22:18:00,76.4,69.0,29.72,NNW,343,4.0,6.0,78,0.00,,,1.73,Wunderground v.1.15,2013-10-05 03:18:00,
2013-10-04 22:23:00,76.4,69.0,29.72,WNW,289,4.0,5.0,78,0.00,,,1.73,Wunderground v.1.15,2013-10-05 03:23:00,
2013-10-04 22:29:00,76.2,69.2,29.71,SSW,203,3.0,3.0,79,0.00,,,1.73,Wunderground v.1.15,2013-10-05 03:29:00,
2013-10-04 22:35:00,75.8,69.2,29.72,ENE,61,2.0,3.0,80,0.00,,,1.73,Wunderground v.1.15,2013-10-05 03:35:00,
2013-10-04 22:40:00,75.7,69.1,29.72,WNW,299,2.0,3.0,80,0.00,,,1.73,Wunderground v.1.15,2013-10-05 03:40:00,
2013-10-04 22:45:00,75.6,69.0,29.72,NNE,25,2.0,3.0,80,0.00,,,1.73,Wunderground v.1.15,2013-10-05 03:45:00,
2013-10-04 22:51:00,75.6,69.0,29.73,WNW,301,2.0,5.0,80,0.00,,,1.73,Wunderground v.1.15,2013-10-05 03:51:00,
2013-10-04 22:57:00,75.6,69.4,29.73,East,81,3.0,5.0,81,0.00,,,1.73,Wunderground v.1.15,2013-10-05 03:57:00,
2013-10-04 23:02:00,75.5,69.3,29.74,ENE,72,3.0,4.0,81,0.00,,,1.73,Wunderground v.1.15,2013-10-05 04:02:00,
2013-10-04 23:05:00,75.4,69.2,29.74,NNE,30,3.0,5.0,81,0.00,,,1.73,Wunderground v.1.15,2013-10-05 04:05:00,
2013-10-04 23:06:00,75.4,69.2,29.75,NNE,32,3.0,5.0,81,0.00,,,1.73,Wunderground v.1.15,2013-10-05 04:06:00,
2013-10-04 23:07:00,75.4,69.2,29.75,NE,44,3.0,5.0,81,0.00,,,1.73,Wunderground v.1.15,2013-10-05 04:07:00,
2013-10-04 23:09:00,75.4,69.2,29.75,ENE,67,3.0,3.0,81,0.00,,,1.73,Wunderground v.1.15,2013-10-05 04:09:00,
2013-10-04 23:15:00,75.3,69.1,29.76,NNW,328,3.0,6.0,81,0.00,,,1.73,Wunderground v.1.15,2013-10-05 04:15:00,
2013-10-04 23:21:00,74.7,69.2,29.76,NE,53,4.0,4.0,83,0.00,,,1.74,Wunderground v.1.15,2013-10-05 04:21:00,
2013-10-04 23:26:00,73.5,69.1,29.77,North,359,3.0,5.0,86,0.31,,,1.78,Wunderground v.1.15,2013-10-05 04:26:00,
2013-10-04 23:33:00,72.3,69.2,29.76,NE,39,4.0,10.0,90,0.30,,,1.80,Wunderground v.1.15,2013-10-05 04:33:00,
2013-10-04 23:39:00,71.6,68.8,29.76,NNE,33,4.0,4.0,91,0.08,,,1.80,Wunderground v.1.15,2013-10-05 04:39:00,
2013-10-04 23:45:00,71.3,68.9,29.77,North,11,3.0,4.0,92,0.04,,,1.80,Wunderground v.1.15,2013-10-05 04:45:00,
2013-10-04 23:51:00,71.1,69.0,29.77,ENE,65,3.0,3.0,93,0.00,,,1.80,Wunderground v.1.15,2013-10-05 04:51:00,
2013-10-04 23:57:00,70.9,68.8,29.77,ENE,72,2.0,6.0,93,0.00,,,1.80,Wunderground v.1.15,2013-10-05 04:57:00,